User: anonymous   Login
Location: Oshawa
(43.9000°N, 78.8670°W)
Time: 20:10:32
(UTC-04:00)
Language:

CARTOSAT-1 - Orbit

View from above orbital plane
View from above orbital plane
View from above satellite
View from above satellite

Ground track
Ground track

The orbit data is extracted from the following two-line orbital elements,

1 28649U 05017A   16270.82365149  .00000238  00000-0  35406-4 0  9991
2 28649  97.8911 342.9317 0002214 145.2240 214.9097 14.83433914616939
Epoch (UTC): 26 September 2016 19:46:03
Eccentricity: 0.0002214
inclination: 97.8911°
perigee height: 617 km
apogee height: 620 km
right ascension of ascending node: 342.9317°
argument of perigee: 145.2240°
revolutions per day: 14.83433914
mean anomaly at epoch: 214.9097°
orbit number at epoch: 61693

The dashed part of the orbit path shows where the satellite is in the earth's shadow,  

DLR